TIME,DELAY(SENSOR),PRES,OXYGEN,RAWTEMP,T(OPTODE),TCPHASE,FLUOR,BETA(BETA700),BETA(BETA412),BETA(BETA440),CDOM,C(CSC),ED(ED412.20),ED(ED444.00),ED(ED489.60),ED(ED554.30),LU(LU412.10),LU(LU443.90),LU(LU489.70),LU(LU554.70),COMP,TILTX,TILTY,CHECK
1344913940,5807,905.3300170898438000,35.6996688842773440,556.7382202148438000,4.5869431495666500,56.1407814025878900,55,100,101,79,82,15571,0,0,0,0,2147123574,2147773549,2147569801,2147572672,752,3,13,23093
1344917536,5807,988.2199707031250000,38.8963088989257800,565.3032836914062000,4.3214187622070310,55.7345085144043000,56,101,100,79,83,15569,0,0,0,0,2147126016,2147776758,2147571803,2147569764,1705,3,13,56585
1344921136,5811,995.5200195312500000,41.4745903015136700,566.9133300781250000,4.2714419364929200,55.3674316406250000,55,98,101,77,83,15562,0,0,0,0,2147123977,2147777974,2147576265,2147571657,280,3,13,8589
1344924736,5812,1002.9199829101562000,41.7782402038574200,567.8406982421875000,4.2426428794860840,55.3266487121582000,55,100,101,79,83,15560,0,0,0,0,2147124973,2147778459,2147571830,2147570688,2829,3,13,10984
1344928336,5808,1008.0499877929688000,41.7354812622070300,568.0482177734375000,4.2361979484558105,55.3382911682128900,55,101,101,79,83,15560,0,0,0,0,2147123510,2147780141,2147578587,2147569270,387,3,13,3105
1344931936,5809,1004.5999755859375000,41.8272094726562500,568.2086791992188000,4.2312130928039550,55.3265304565429700,55,102,100,78,83,15559,0,0,0,0,2147125540,2147774884,2147573577,2147571922,3544,3,13,4867
1344935536,5808,1001.1599731445312000,41.6331710815429700,568.3870239257812000,4.2256760597229000,55.3582382202148440,56,99,102,80,82,15557,0,0,0,0,2147123940,2147777408,2147570285,2147572507,269,3,13,27502
1344939136,5809,1006.2800292968750000,40.5331001281738300,569.2999267578125000,4.1973171234130860,55.5322303771972660,55,100,102,78,83,15554,0,0,0,0,2147123620,2147781604,2147577389,2147570276,3379,3,13,24090
1344942736,5809,1008.6599731445312000,41.1570510864257800,569.6895751953125000,4.1852068901062010,55.4376602172851560,54,99,100,78,82,15554,0,0,0,0,2147122176,2147777846,2147575469,2147569993,185,3,13,62256
1344946336,5811,1012.1500244140625000,41.7180900573730500,569.6126708984375000,4.1875948905944820,55.3558311462402340,55,100,101,78,83,15553,0,0,0,0,2147125851,2147773878,2147572297,2147573613,245,3,13,17644
1344949936,5810,1015.3699951171875000,41.7108802795410160,569.6240844726562000,4.1872410774230960,55.3605499267578100,55,98,100,79,83,15551,0,0,0,0,2147122349,2147775698,2147578157,2147575067,3502,3,13,188
1344953536,5811,1018.7199707031250000,40.8359107971191400,568.8709106445312000,4.2106437683105470,55.4767494201660160,55,100,102,78,82,15553,0,0,0,0,2147125366,2147772662,2147577097,2147573037,3502,3,13,39373
1344957136,5807,1015.6900024414062000,40.7859497070312500,569.6655273437500000,4.1859569549560550,55.4939193725585940,55,97,100,78,82,15556,0,0,0,0,2147122413,2147776356,2147572982,2147569380,130,3,13,50320
1344960736,5810,1010.9099731445312000,40.7229995727539060,569.8648071289062000,4.1797618865966800,55.5054512023925800,55,98,102,79,83,15554,0,0,0,0,2147120978,2147782537,2147575689,2147571885,3546,3,13,34624
1344964336,5810,1016.4099731445312000,40.9343109130859400,569.3640747070312000,4.1953201293945310,55.4688606262207000,55,107,102,79,81,15553,0,0,0,0,2147126683,2147772781,2147572708,2147571849,836,3,13,23489
1344967936,5810,1012.8599853515625000,41.6067581176757800,570.4597167968750000,4.1612739562988280,55.3832397460937500,55,100,101,77,83,15553,0,0,0,0,2147124635,2147774354,2147574482,2147574153,11,3,13,26458
1344971536,5811,1014.6400146484375000,41.5643806457519500,570.4102172851562000,4.1628108024597170,55.3872108459472660,55,109,101,78,84,15553,0,0,0,0,2147126080,2147771318,2147573778,2147570925,88,3,13,23630
1344975136,5809,1013.2399902343750000,41.3038291931152340,570.4619140625000000,4.1612071990966800,55.4285011291503900,55,98,101,78,83,15551,0,0,0,0,2147121691,2147776850,2147574793,2147572608,62,3,13,42810
1344978736,5809,1021.9799804687500000,41.1459312438964840,569.0402832031250000,4.2053809165954590,55.4323005676269500,55,100,101,78,84,15552,0,0,0,0,2147123035,2147773915,2147572059,2147569243,191,3,13,16757
1344982336,5813,1015.9000244140625000,41.2122917175293000,570.2932739257812000,4.1664471626281740,55.4362182617187500,55,98,100,78,83,15552,0,0,0,0,2147124242,2147773001,2147573878,2147573723,3363,3,13,55887
1344985936,5811,1018.7999877929688000,40.7805709838867200,569.9714965820312000,4.1764469146728520,55.5014495849609400,55,102,101,78,83,15547,0,0,0,0,2147122112,2147774473,2147573366,2147570889,3547,3,13,5977
1344989536,5808,1021.5499877929688000,41.0180282592773440,569.9663085937500000,4.1766090393066410,55.4652290344238300,55,99,101,78,83,15548,0,0,0,0,2147123830,2147776978,2147574034,2147567213,305,3,13,44961
1344993136,5809,1025.4399414062500000,41.8074684143066400,568.6765747070312000,4.2166790962219240,55.3365898132324200,56,102,102,78,83,15547,0,0,0,0,2147122633,2147771053,2147578084,2147569033,851,3,13,28038
1344996736,5812,1019.1900024414062000,41.2582015991210940,568.6967163085938000,4.2160568237304690,55.4158096313476560,55,98,101,77,83,15545,0,0,0,0,2147122678,2147775972,2147572123,2147568256,2981,3,13,43383
1345000336,5808,1025.1500244140625000,41.0081901550293000,568.3333740234375000,4.2273387908935550,55.4497299194335940,56,99,99,78,83,15550,0,0,0,0,2147121718,2147774198,2147575341,2147570349,190,3,13,64145
1345003936,5808,1024.9100341796875000,40.9146118164062500,568.4180908203125000,4.2247090339660645,55.4606208801269500,55,99,100,78,83,15550,0,0,0,0,2147122880,2147777627,2147575113,2147572928,385,3,13,11583
1345007536,5809,1027.8299560546875000,40.8927192687988300,568.4091186523438000,4.2249889373779300,55.4631004333496100,54,100,101,78,82,15551,0,0,0,0,2147127030,2147774482,2147574070,2147569773,3495,3,13,24466
1345011136,5811,1021.4400024414062000,40.8639106750488300,569.8837890625000000,4.1791729927062990,55.4840087890625000,55,99,100,78,82,15546,0,0,0,0,2147122688,2147774089,2147574518,2147570825,3482,3,13,56380
1345014736,5809,1017.9500122070312000,41.2014999389648440,569.7158203125000000,4.1843910217285160,55.4313812255859400,55,98,101,77,83,15551,0,0,0,0,2147122797,2147775506,2147575186,2147573595,114,3,13,22443
1345018336,5809,1021.2999877929688000,41.9912796020507800,570.4818115234375000,4.1605892181396480,55.3281097412109400,56,99,101,79,83,15550,0,0,0,0,2147121910,2147772278,2147571510,2147569709,305,3,13,34875
1345021936,5809,1019.8800048828125000,41.7672195434570300,569.7797241210938000,4.1824049949646000,55.3541107177734400,55,98,101,78,82,15551,0,0,0,0,2147123565,2147777472,2147573522,2147570011,165,3,13,24226
1345025536,5813,1025.0999755859375000,41.2384109497070300,570.1657714843750000,4.1704101562500000,55.4306106567382800,55,98,101,78,84,15551,0,0,0,0,2147123730,2147769938,2147571693,2147572361,92,3,13,13808
1345029136,5809,1026.0400390625000000,39.6717910766601560,570.3112792968750000,4.1658878326416020,55.6700782775878900,55,98,101,78,84,15550,0,0,0,0,2147122066,2147773897,2147569380,2147568777,94,3,13,37024
1345032736,5810,1027.6700439453125000,39.7602691650390600,568.9044189453125000,4.2096037864685060,55.6360893249511700,55,98,100,80,84,15551,0,0,0,0,2147120768,2147774052,2147574208,2147570121,12,3,13,58964
1345036336,5809,1026.7299804687500000,41.4513015747070300,569.7216796875000000,4.1842098236083980,55.3939094543457000,54,98,101,78,84,15490,0,0,0,0,2147125010,2147774619,2147573266,2147571730,433,3,13,6430
1345039936,5811,1018.1799926757812000,41.1760787963867200,570.0941162109375000,4.1726379394531250,55.4391593933105500,55,99,101,77,83,15489,0,0,0,0,2147126436,2147779236,2147568850,2147570029,27,3,13,39119
1345043536,5814,1026.4000244140625000,42.0363998413085940,570.2399291992188000,4.1681041717529300,55.3199501037597660,54,99,100,78,83,15490,0,0,0,0,2147123638,2147770752,2147574491,2147572644,3202,3,13,149
1345047136,5809,1020.0499877929688000,41.7399291992187500,569.9312133789062000,4.1776981353759770,55.3591194152832000,55,102,101,78,83,15468,0,0,0,0,2147119616,2147777426,2147575533,2147571520,8,3,13,51740
1345050736,5810,1018.3599853515625000,41.4833793640136700,570.3280029296875000,4.1653671264648440,55.3970298767089840,54,101,101,78,83,15468,0,0,0,0,2147120960,2147780653,2147572178,2147573714,9,3,13,15631
1345054336,5810,1025.0300292968750000,42.3994407653808600,570.3461914062500000,4.1648030281066895,55.2640991210937500,55,101,100,78,82,15467,0,0,0,0,2147123556,2147777389,2147575003,2147567497,35,3,13,20710
1345057936,5811,1029.0999755859375000,40.8327484130859400,569.4641113281250000,4.1922149658203125,55.4841499328613300,55,97,100,78,83,15462,0,0,0,0,2147120146,2147780443,2147574070,2147571483,3449,3,13,564
1345058755,5811,1025.0100097656250000,40.4761695861816400,569.6688232421875000,4.1858520507812500,55.5414810180664060,55,101,102,78,82,15466,0,0,0,0,2147120457,2147777654,2147573019,2147568969,957,3,13,60354
